TimeCDT,TemperatureF,Dew PointF,Humidity,Sea Level PressureIn,VisibilityMPH,Wind Direction,Wind SpeedMPH,Gust SpeedMPH,PrecipitationIn,Events,Conditions,WindDirDegrees,DateUTC
12:53 AM,75.9,69.1,79,29.63,10.0,East,4.6,-,N/A,,Clear,100,2013-09-09 05:53:00
1:44 AM,78.8,66.2,65,29.76,10.0,West,20.7,39.1,N/A,,Clear,280,2013-09-09 06:44:00
1:53 AM,75.9,68.0,76,29.69,10.0,West,13.8,21.9,N/A,,Clear,270,2013-09-09 06:53:00
2:53 AM,73.9,69.1,85,29.69,10.0,NW,9.2,-,N/A,,Clear,310,2013-09-09 07:53:00
3:53 AM,71.1,64.9,81,29.67,10.0,Calm,Calm,-,N/A,,Clear,0,2013-09-09 08:53:00
4:53 AM,71.1,64.9,81,29.66,10.0,SSW,5.8,-,N/A,,Clear,200,2013-09-09 09:53:00
5:53 AM,66.0,63.0,90,29.67,10.0,West,8.1,-,N/A,,Clear,260,2013-09-09 10:53:00
6:53 AM,64.9,63.0,93,29.68,10.0,NW,8.1,-,N/A,,Clear,320,2013-09-09 11:53:00
7:53 AM,66.0,62.1,87,29.72,10.0,WNW,4.6,-,N/A,,Clear,300,2013-09-09 12:53:00
8:53 AM,70.0,64.0,81,29.72,10.0,West,9.2,-,N/A,,Clear,270,2013-09-09 13:53:00
9:53 AM,73.9,64.9,73,29.73,10.0,WNW,13.8,-,N/A,,Clear,290,2013-09-09 14:53:00
10:53 AM,79.0,64.9,62,29.74,10.0,WNW,12.7,-,N/A,,Clear,300,2013-09-09 15:53:00
11:53 AM,82.9,63.0,51,29.74,10.0,WNW,11.5,-,N/A,,Clear,290,2013-09-09 16:53:00
12:53 PM,78.1,64.0,62,29.76,10.0,WNW,13.8,-,N/A,,Clear,290,2013-09-09 17:53:00
1:53 PM,82.9,62.1,49,29.75,10.0,WNW,15.0,23.0,N/A,,Clear,300,2013-09-09 18:53:00
2:53 PM,82.9,61.0,47,29.76,10.0,NW,17.3,-,N/A,,Clear,310,2013-09-09 19:53:00
3:53 PM,84.9,55.9,37,29.76,10.0,NW,17.3,25.3,N/A,,Clear,310,2013-09-09 20:53:00
4:53 PM,84.9,55.9,37,29.77,10.0,WNW,15.0,-,N/A,,Clear,300,2013-09-09 21:53:00
5:53 PM,82.9,59.0,44,29.81,10.0,NNW,13.8,-,N/A,,Clear,330,2013-09-09 22:53:00
6:53 PM,81.0,59.0,47,29.82,10.0,North,10.4,-,N/A,,Clear,350,2013-09-09 23:53:00
7:53 PM,75.9,62.1,62,29.85,10.0,North,9.2,-,N/A,,Clear,360,2013-09-10 00:53:00
8:53 PM,72.0,61.0,68,29.85,10.0,NE,5.8,-,N/A,,Clear,40,2013-09-10 01:53:00
9:53 PM,71.1,61.0,70,29.86,10.0,Calm,Calm,-,N/A,,Mostly Cloudy,0,2013-09-10 02:53:00
10:53 PM,71.1,62.1,73,29.86,10.0,Calm,Calm,-,0.00,,Mostly Cloudy,0,2013-09-10 03:53:00
11:53 PM,70.0,64.0,81,29.87,10.0,Calm,Calm,-,0.00,Rain,Light Rain,0,2013-09-10 04:53:00